Weather Roundup
Issued by NWS Springfield, MO

Home | Current Version | Previous Version | Text Only | Print | Product List | Glossary On
Versions: 1 2 3 4 5 6 7 8 9 10 11 12 13 14 15 16 17 18 19 20 21 22 23 24 25 26 27 28 29 30 31 32 33 34 35 36 37 38 39 40 41 42 43 44 45 46 47 48 49 50
000
NZUS99 KSGF 021059
HRRSGF

HOURLY WEATHER
NATIONAL WEATHER SERVICE SPRINGFIELD MO
600 AM CDT TUE JUN 02 2015

......SGF CWA......

CITY           SKY/WX    TMP DP  RH WIND       PRES   REMARKS
SPRINGFIELD    CLOUDY    56  54  93 SE6       30.10R
JOPLIN         CLOUDY    57  55  93 E3        30.08R
WEST PLAINS    CLOUDY    59  55  87 CALM      30.13S
ROLLA          CLOUDY    57  56  96 CALM      30.11S
OSAGE BEACH    CLOUDY    57  55  94 E3        30.12S

......SURROUNDING SGF CWA......

CITY           SKY/WX    TMP DP  RH WIND       PRES   REMARKS
CHANUTE        MOCLDY    57  55  93 E7        30.06F
PARSONS        MOCLDY    60  57  89 N3        30.07S
COFFEYVILLE    CLOUDY    60  57  89 E5        30.04F
EMPORIA        CLOUDY    57  54  89 SE10      30.06R
SILOAM SPRINGS CLOUDY    61  54  77 E3        30.09R
HARRISON AR    CLOUDY    59  58  96 SE6       30.11S
NEAR YELLVILLE MOCLDY    61  55  82 CALM      30.10S

......KANSAS AND MISSOURI......

CITY           SKY/WX    TMP DP  RH WIND       PRES   REMARKS
KANSAS CTY INT CLOUDY    58  53  84 SE6       30.10R
DOWNTOWN KC    CLOUDY    60  52  74 SE7       30.09S
COLUMBIA       CLOUDY    57  56  96 CALM      30.13S
SEDALIA        CLOUDY    60  55  83 E3        30.13R
ST JOSEPH      CLOUDY    59  53  80 SE7       30.09S
ST LOUIS       MOCLDY    59  55  87 NE3       30.14S
SPIRIT OF STL  CLOUDY    59  59 100 CALM      30.13R
WICHITA        CLOUDY    63  58  83 SE9       30.01F
TOPEKA         CLOUDY    58  55  90 SE8       30.08F
OLATHE         MOCLDY    56  53  90 SE7       30.09S

......TENNESSEE......

CITY           SKY/WX    TMP DP  RH WIND       PRES   REMARKS
MEMPHIS        MOCLDY    63  60  90 N7        30.06S FOG
NASHVILLE      CLOUDY    61  59  93 N6        30.07R

......ARKANSAS.......

CITY           SKY/WX    TMP DP  RH WIND       PRES   REMARKS
FAYETTEVILLE   CLOUDY    57  57 100 CALM      30.08S
FT SMITH       PTCLDY    65  62  90 E3        30.06S
LITTLE ROCK    MOCLDY    64  60  87 NE5       30.09R

......OKLAHOMA.......

CITY           SKY/WX    TMP DP  RH WIND       PRES   REMARKS
TULSA          CLOUDY    65  62  90 CALM      30.03R
PONCA CITY     CLOUDY    65  60  84 SE12      30.02S
MCALESTER      MOCLDY    65  62  90 CALM      30.04S
OKLAHOMA CITY  MOCLDY    65  61  87 S7        30.01S

......IOWA............

CITY           SKY/WX    TMP DP  RH WIND       PRES   REMARKS
DES MOINES     MOCLDY    55  51  86 SE5       30.12R
QUAD CITIES    CLOUDY    51  47  86 E5        30.17F

......ILLINOIS........

CITY           SKY/WX    TMP DP  RH WIND       PRES   REMARKS
QUINCY         CLOUDY    56  53  90 E6        30.14S
CHICAGO        PTCLDY    45  39  79 CALM      30.19R



USA.gov is the U.S. government's official web portal to all federal, state and local government web resources and services.